Weather History for Woodward, OK

Change the Weather History Date:

Saturday, October 12, 2013

  Actual Average (KGAG) Record (KGAG)
Temperature  
Mean Temperature 58 °F -  
Max Temperature 71 °F 76 °F 91 °F (1966)
Min Temperature 44 °F 47 °F 27 °F (1977)
Degree Days  
Heating Degree Days 8    
Growing Degree Days 8 (Base 50)    
Moisture  
Dew Point 38 °F    
Average Humidity 51    
Maximum Humidity 87    
Minimum Humidity 23    
Precipitation  
Precipitation 0.00 in - - ()
Sea Level Pressure  
Sea Level Pressure 30.14 in    
Wind  
Wind Speed 9 mph (NE)    
Max Wind Speed 17 mph    
Max Gust Speed 24 mph    
Visibility 10 miles    
Events      
Averages and records for this station are not official NWS values.
T = Trace of Precipitation, MM = Missing Value Source: NWS Daily Summary

Daily Weather History Graph

Daily Weather History Graph

Search for Another Location

Airport:

Trip Planner

Search our weather history database for the weather conditions in past years. The results will help you decide how hot, cold, wet, or windy it might be!

Date:

Astronomy

Oct. 12, 2013 Rise Set
Actual Time 7:42 AM CDT 7:05 PM CDT
Civil Twilight 7:16 AM CDT 7:31 PM CDT
Nautical Twilight 6:47 AM CDT 8:01 PM CDT
Astronomical Twilight 6:17 AM CDT 8:31 PM CDT
Moon 3:06 PM CDT (10/12) 12:58 AM CDT (10/12)
Length of Visible Light 12h 14m
Length of Day
11h 22m
First Quarter, 59% of the Moon is Illuminated
Oct 12
First Quarter
Oct 18
Full
Oct 26
Last Quarter
Nov 3
New
Nov 9
First Quarter

Hourly Weather History & Observations

Time (CDT) Temp. Windchill Dew Point Humidity Pressure Visibility Wind Dir Wind Speed Gust Speed Precip Events Conditions
12:15 AM 59.0 °F - 41.0 °F 51% 29.96 in 10.0 mi NE 10.4 mph 17.3 mph N/A   Clear
12:35 AM 57.2 °F - 42.8 °F 59% 29.97 in 10.0 mi NE 8.1 mph - N/A   Clear
12:55 AM 55.4 °F - 42.8 °F 63% 29.98 in 10.0 mi NE 6.9 mph - N/A   Clear
1:15 AM 53.6 °F - 42.8 °F 67% 29.99 in 10.0 mi NNE 6.9 mph - N/A   Clear
1:35 AM 51.8 °F - 42.8 °F 71% 30.00 in 10.0 mi NNE 5.8 mph - N/A   Clear
1:55 AM 53.6 °F - 42.8 °F 67% 30.00 in 10.0 mi NNE 6.9 mph - N/A   Clear
2:15 AM 53.6 °F - 42.8 °F 67% 30.01 in 10.0 mi NNE 5.8 mph - N/A   Clear
2:35 AM 51.8 °F - 42.8 °F 71% 30.01 in 10.0 mi NNE 5.8 mph - N/A   Clear
2:55 AM 51.8 °F - 42.8 °F 71% 30.02 in 10.0 mi North 5.8 mph - N/A   Clear
3:15 AM 50.0 °F - 42.8 °F 76% 30.02 in 10.0 mi NNE 5.8 mph - N/A   Clear
3:35 AM 50.0 °F - 42.8 °F 76% 30.02 in 10.0 mi NNE 5.8 mph - N/A   Clear
3:55 AM 50.0 °F - 42.8 °F 76% 30.03 in 7.0 mi NNE 3.5 mph - N/A   Clear
4:15 AM 50.0 °F - 42.8 °F 76% 30.04 in 10.0 mi NNE 4.6 mph - N/A   Clear
4:35 AM 50.0 °F - 42.8 °F 76% 30.05 in 10.0 mi NNE 4.6 mph - N/A   Clear
4:55 AM 48.2 °F - 42.8 °F 82% 30.05 in 10.0 mi NNE 8.1 mph - N/A   Clear
5:15 AM 46.4 °F 43.5 °F 42.8 °F 87% 30.05 in 10.0 mi NNE 5.8 mph - N/A   Clear
5:35 AM 48.2 °F - 42.8 °F 82% 30.07 in 7.0 mi NNE 8.1 mph - N/A   Clear
5:55 AM 46.4 °F 43.5 °F 41.0 °F 81% 30.07 in 10.0 mi NNE 5.8 mph - N/A   Clear
6:15 AM 46.4 °F 43.5 °F 41.0 °F 81% 30.09 in 7.0 mi NNE 5.8 mph - N/A   Clear
6:35 AM 46.4 °F 42.9 °F 41.0 °F 81% 30.10 in 10.0 mi NNE 6.9 mph - N/A   Clear
6:55 AM 46.4 °F 43.5 °F 41.0 °F 81% 30.11 in 10.0 mi NNE 5.8 mph - N/A   Clear
7:15 AM 46.4 °F 43.5 °F 41.0 °F 81% 30.12 in 10.0 mi NE 5.8 mph - N/A   Clear
7:35 AM 46.4 °F 42.9 °F 41.0 °F 81% 30.12 in 10.0 mi NNE 6.9 mph - N/A   Clear
7:55 AM 44.6 °F 40.7 °F 41.0 °F 87% 30.14 in 10.0 mi NNE 6.9 mph - N/A   Clear
8:15 AM 46.4 °F 42.9 °F 41.0 °F 81% 30.16 in 10.0 mi NNE 6.9 mph - N/A   Clear
8:35 AM 50.0 °F - 42.8 °F 76% 30.17 in 10.0 mi NNE 6.9 mph - N/A   Clear
8:55 AM 51.8 °F - 42.8 °F 71% 30.18 in 10.0 mi NNE 9.2 mph - N/A   Clear
9:15 AM 55.4 °F - 41.0 °F 58% 30.19 in 10.0 mi NNE 11.5 mph - N/A   Clear
9:35 AM 55.4 °F - 41.0 °F 58% 30.19 in 10.0 mi NE 12.7 mph - N/A   Clear
9:55 AM 57.2 °F - 41.0 °F 55% 30.20 in 10.0 mi NE 13.8 mph - N/A   Clear
10:15 AM 59.0 °F - 37.4 °F 45% 30.20 in 10.0 mi NE 15.0 mph - N/A   Clear
10:35 AM 60.8 °F - 37.4 °F 42% 30.20 in 10.0 mi ENE 13.8 mph 20.7 mph N/A   Clear
10:55 AM 60.8 °F - 37.4 °F 42% 30.21 in 10.0 mi NE 17.3 mph - N/A   Clear
11:15 AM 62.6 °F - 37.4 °F 39% 30.21 in 10.0 mi NE 16.1 mph 24.2 mph N/A   Clear
11:35 AM 62.6 °F - 37.4 °F 39% 30.22 in 10.0 mi NE 16.1 mph 21.9 mph N/A   Clear
11:55 AM 64.4 °F - 37.4 °F 37% 30.21 in 10.0 mi ENE 13.8 mph 18.4 mph N/A   Clear
12:15 PM 64.4 °F - 37.4 °F 37% 30.21 in 10.0 mi NE 12.7 mph 18.4 mph N/A   Clear
12:35 PM 66.2 °F - 35.6 °F 32% 30.21 in 10.0 mi NE 12.7 mph 20.7 mph N/A   Clear
12:55 PM 68.0 °F - 35.6 °F 30% 30.21 in 10.0 mi NE 13.8 mph 21.9 mph N/A   Clear
1:15 PM 68.0 °F - 35.6 °F 30% 30.20 in 10.0 mi NE 11.5 mph 19.6 mph N/A   Clear
1:35 PM 68.0 °F - 35.6 °F 30% 30.19 in 10.0 mi NE 12.7 mph 19.6 mph N/A   Clear
1:55 PM 69.8 °F - 33.8 °F 27% 30.18 in 10.0 mi NE 12.7 mph 20.7 mph N/A   Clear
2:15 PM 69.8 °F - 33.8 °F 27% 30.17 in 10.0 mi NE 10.4 mph 18.4 mph N/A   Clear
2:35 PM 69.8 °F - 33.8 °F 27% 30.17 in 10.0 mi NE 12.7 mph 19.6 mph N/A   Clear
2:55 PM 71.6 °F - 33.8 °F 25% 30.17 in 10.0 mi NE 12.7 mph 23.0 mph N/A   Clear
3:15 PM 71.6 °F - 32.0 °F 23% 30.16 in 10.0 mi NE 10.4 mph 19.6 mph N/A   Clear
3:35 PM 71.6 °F - 32.0 °F 23% 30.16 in 10.0 mi NE 12.7 mph - N/A   Clear
3:55 PM 71.6 °F - 32.0 °F 23% 30.16 in 10.0 mi ENE 8.1 mph 18.4 mph N/A   Clear
4:15 PM 71.6 °F - 32.0 °F 23% 30.16 in 10.0 mi ENE 10.4 mph 18.4 mph N/A   Clear
4:35 PM 71.6 °F - 32.0 °F 23% 30.15 in 10.0 mi ENE 12.7 mph 16.1 mph N/A   Clear
4:55 PM 71.6 °F - 32.0 °F 23% 30.15 in 10.0 mi NE 13.8 mph 23.0 mph N/A   Clear
5:15 PM 71.6 °F - 32.0 °F 23% 30.15 in 10.0 mi ENE 11.5 mph 19.6 mph N/A   Clear
5:35 PM 71.6 °F - 32.0 °F 23% 30.15 in 10.0 mi ENE 12.7 mph - N/A   Clear
5:55 PM 69.8 °F - 32.0 °F 25% 30.15 in 10.0 mi ENE 10.4 mph - N/A   Clear
6:15 PM 69.8 °F - 32.0 °F 25% 30.15 in 10.0 mi NE 13.8 mph - N/A   Clear
6:35 PM 68.0 °F - 32.0 °F 26% 30.16 in 10.0 mi ENE 8.1 mph - N/A   Clear
6:55 PM 66.2 °F - 33.8 °F 30% 30.16 in 7.0 mi ENE 8.1 mph - N/A   Clear
7:15 PM 62.6 °F - 35.6 °F 37% 30.16 in 7.0 mi East 5.8 mph - N/A   Clear
7:35 PM 60.8 °F - 35.6 °F 39% 30.17 in 7.0 mi East 4.6 mph - N/A   Clear
7:55 PM 60.8 °F - 35.6 °F 39% 30.17 in 10.0 mi East 5.8 mph - N/A   Clear
8:15 PM 59.0 °F - 35.6 °F 42% 30.18 in 10.0 mi ENE 5.8 mph - N/A   Clear
8:35 PM 59.0 °F - 35.6 °F 42% 30.19 in 10.0 mi ENE 5.8 mph - N/A   Clear
8:55 PM 59.0 °F - 35.6 °F 42% 30.19 in 10.0 mi ENE 6.9 mph - N/A   Clear
9:15 PM 59.0 °F - 35.6 °F 42% 30.20 in 10.0 mi ENE 8.1 mph - N/A   Clear
9:35 PM 57.2 °F - 35.6 °F 44% 30.21 in 10.0 mi ENE 8.1 mph - N/A   Clear
9:55 PM 57.2 °F - 35.6 °F 44% 30.22 in 10.0 mi ENE 6.9 mph - N/A   Clear
10:15 PM 55.4 °F - 35.6 °F 47% 30.23 in 10.0 mi ENE 6.9 mph - N/A   Clear
10:35 PM 55.4 °F - 37.4 °F 51% 30.24 in 10.0 mi East 8.1 mph - N/A   Clear
10:55 PM 57.2 °F - 37.4 °F 48% 30.24 in 10.0 mi East 9.2 mph 16.1 mph N/A   Clear
11:15 PM 55.4 °F - 37.4 °F 51% 30.25 in 10.0 mi East 9.2 mph - N/A   Clear
11:35 PM 55.4 °F - 37.4 °F 51% 30.25 in 10.0 mi East 8.1 mph - N/A   Clear
11:55 PM 55.4 °F - 37.4 °F 51% 30.26 in 10.0 mi East 5.8 mph - N/A   Clear